Philip, SD

6:53 PM MST on February 25, 2017 (GMT -0700)
Philip

Weather History for KPHP - November, 2011

Change the Weather History Date:

Wednesday, November 2, 2011

  Actual Average Record
Temperature  
Mean Temperature 34 °F 41 °F  
Max Temperature 48 °F 54 °F 81 °F (2008)
Min Temperature 19 °F 27 °F -1 °F (1991)
Degree Days  
Heating Degree Days 31 24  
Month to date heating degree days 53 48  
Since 1 July heating degree days 596 751  
Cooling Degree Days 0 0  
Month to date cooling degree days 0 0  
Year to date cooling degree days 837 818  
Moisture  
Dew Point 17 °F    
Average Humidity 51    
Maximum Humidity 81    
Minimum Humidity 21    
Precipitation  
Precipitation T in 0.03 in 0.47 in (1990)
Month to date precipitation T 0.06  
Year to date precipitation 15.35 16.36  
Sea Level Pressure  
Sea Level Pressure 30.42 in    
Wind  
Wind Speed 8 mph (NW)    
Max Wind Speed 18 mph    
Max Gust Speed 24 mph    
Visibility 10 miles    
Events Rain    
T = Trace of Precipitation, MM = Missing Value Source: NWS Daily Summary

Daily Weather History Graph

Daily Weather History Graph

Search for Another Location

Airport or City:

Trip Planner

Search our weather history database for the weather conditions in past years. The results will help you decide how hot, cold, wet, or windy it might be!

Date:

Astronomy

Nov. 02, 2011 Rise Set
Actual Time 7:23 AM MDT 5:35 PM MDT
Civil Twilight 6:53 AM MDT 6:05 PM MDT
Nautical Twilight 6:19 AM MDT 6:39 PM MDT
Astronomical Twilight 5:46 AM MDT 7:13 PM MDT
Moon 1:44 PM MDT (11/2) No Moon Set
Length of Visible Light 11h 11m
Length of Day
10h 11m
Waxing Crescent, 51% of the Moon is Illuminated
Nov 2
Waxing Crescent
Nov 10
Full
Nov 18
Last Quarter
Nov 24
New
Dec 2
First Quarter

Hourly Weather History & Observations

Time (MDT) Temp. Windchill Dew Point Humidity Pressure Visibility Wind Dir Wind Speed Gust Speed Precip Events Conditions
12:55 AM 39.0 °F 32.3 °F 30.9 °F 73% 30.32 in 10.0 mi NNW 10.4 mph - 0.00 in Rain Light Rain
1:55 AM 39.9 °F 32.5 °F 30.9 °F 70% 30.32 in 10.0 mi NNW 12.7 mph - 0.00 in   Overcast
2:55 AM 39.9 °F 31.8 °F 27.0 °F 60% 30.35 in 10.0 mi North 15.0 mph - N/A   Overcast
3:55 AM 39.0 °F 32.3 °F 25.0 °F 57% 30.37 in 10.0 mi North 10.4 mph - N/A   Overcast
4:55 AM 36.0 °F 29.0 °F 23.0 °F 59% 30.40 in 10.0 mi North 9.2 mph - N/A   Mostly Cloudy
5:55 AM 28.0 °F 20.0 °F 19.9 °F 72% 30.43 in 10.0 mi NW 8.1 mph - N/A   Clear
6:55 AM 24.1 °F 14.4 °F 19.0 °F 81% 30.45 in 10.0 mi NW 9.2 mph - N/A   Clear
7:55 AM 24.1 °F 16.0 °F 19.0 °F 81% 30.49 in 10.0 mi NW 6.9 mph - N/A   Clear
8:55 AM 30.9 °F 23.5 °F 21.9 °F 69% 30.50 in 10.0 mi WNW 8.1 mph - N/A   Clear
9:55 AM 36.0 °F 27.1 °F 19.9 °F 52% 30.48 in 10.0 mi NW 13.8 mph - N/A   Clear
10:55 AM 42.1 °F 35.2 °F 19.0 °F 40% 30.48 in 10.0 mi NW 12.7 mph - N/A   Clear
11:55 AM 45.0 °F 38.9 °F 14.0 °F 29% 30.47 in 10.0 mi North 12.7 mph 20.7 mph N/A   Clear
12:55 PM 45.0 °F 38.9 °F 15.1 °F 30% 30.45 in 5.0 mi NW 12.7 mph 23.0 mph N/A   Haze
1:55 PM 46.0 °F 40.6 °F 12.9 °F 26% 30.42 in 10.0 mi NNW 11.5 mph - N/A   Clear
2:55 PM 48.0 °F - 12.9 °F 24% 30.40 in 10.0 mi NNW 9.2 mph 17.3 mph N/A   Clear
3:55 PM 46.9 °F - 8.1 °F 21% 30.40 in 10.0 mi North 8.1 mph - N/A   Clear
4:55 PM 45.0 °F 42.6 °F 9.0 °F 23% 30.41 in 10.0 mi NW 4.6 mph - N/A   Clear
5:55 PM 37.0 °F 33.3 °F 10.0 °F 33% 30.43 in 10.0 mi NW 4.6 mph - N/A   Clear
6:55 PM 30.0 °F 25.2 °F 12.0 °F 47% 30.46 in 10.0 mi West 4.6 mph - N/A   Clear
7:55 PM 27.0 °F 20.5 °F 10.0 °F 49% 30.45 in 10.0 mi West 5.8 mph - N/A   Clear
8:55 PM 25.0 °F 18.1 °F 10.0 °F 53% 30.43 in 10.0 mi West 5.8 mph - N/A   Clear
9:55 PM 24.1 °F 16.0 °F 12.0 °F 60% 30.42 in 10.0 mi West 6.9 mph - N/A   Clear
10:55 PM 24.1 °F 18.2 °F 17.1 °F 75% 30.38 in 10.0 mi WNW 4.6 mph - N/A   Clear
11:55 PM 24.1 °F 17.0 °F 19.0 °F 81% 30.36 in 10.0 mi WNW 5.8 mph - N/A   Clear